Total_Precipitation_Accumulation
0.74 0.73 0.77 0.79 0.83 0.88 0.95 0.96 1.02 1.08 1.15 1.16 1.13 1.08 0.99 0.92 0.91 0.92 0.94 1.04 1.04 1.03 1.11 1.14 1.18 1.27 1.39 1.45 1.47 1.50 1.66 1.81 1.67 1.57 1.43 1.29 1.12 0.93 0.74 0.67 0.57 0.47 0.42
0.72 0.72 0.75 0.78 0.78 0.78 0.80 0.79 0.81 0.86 0.89 0.91 0.91 0.97 1.00 0.98 0.94 0.92 0.88 0.87 0.91 0.92 0.99 1.08 1.13 1.25 1.32 1.30 1.40 1.47 1.62 1.80 1.87 1.97 2.02 1.74 1.40 1.13 0.98 0.81 0.56 0.41 0.41
0.66 0.71 0.77 0.76 0.74 0.77 0.80 0.80 0.79 0.78 0.80 0.79 0.81 0.83 0.85 0.93 1.04 1.05 1.02 1.01 1.03 0.94 0.99 1.08 1.07 1.10 1.16 1.17 1.27 1.41 1.56 1.67 1.79 1.87 2.00 1.82 1.58 1.27 1.18 0.96 0.72 0.61 0.41
0.57 0.72 0.84 0.89 0.90 0.90 0.85 0.86 0.84 0.80 0.81 0.79 0.75 0.76 0.78 0.79 0.86 0.99 1.04 1.03 0.99 0.93 0.92 0.92 0.90 0.89 0.95 1.01 1.07 1.21 1.37 1.47 1.56 1.59 1.70 1.76 1.75 1.68 1.54 1.28 1.07 0.86 0.67
0.58 0.79 0.90 0.88 0.83 0.82 0.81 0.88 0.85 0.77 0.75 0.79 0.72 0.68 0.73 0.77 0.76 0.78 0.88 0.91 0.88 0.85 0.85 0.77 0.67 0.69 0.74 0.76 0.82 0.99 1.12 1.23 1.35 1.43 1.56 1.71 1.78 1.82 1.66 1.51 1.34 1.18 0.95
0.55 0.66 0.70 0.74 0.77 0.73 0.68 0.67 0.69 0.71 0.71 0.71 0.65 0.63 0.63 0.58 0.62 0.59 0.60 0.67 0.69 0.68 0.71 0.71 0.63 0.56 0.54 0.57 0.60 0.68 0.79 0.91 1.09 1.29 1.46 1.64 1.71 1.65 1.71 1.65 1.54 1.41 1.27
0.48 0.52 0.60 0.71 0.74 0.67 0.58 0.61 0.68 0.69 0.68 0.66 0.61 0.56 0.54 0.52 0.46 0.41 0.41 0.50 0.56 0.55 0.56 0.60 0.54 0.49 0.45 0.41 0.48 0.57 0.59 0.64 0.72 0.98 1.21 1.28 1.29 1.26 1.43 1.58 1.50 1.42 1.43
0.49 0.56 0.62 0.73 0.73 0.69 0.66 0.65 0.65 0.66 0.65 0.65 0.60 0.56 0.57 0.54 0.46 0.38 0.34 0.33 0.43 0.50 0.49 0.50 0.50 0.50 0.46 0.43 0.42 0.48 0.47 0.46 0.47 0.54 0.65 0.74 0.87 0.96 1.12 1.38 1.56 1.47 1.46
0.50 0.61 0.71 0.80 0.79 0.74 0.72 0.69 0.67 0.65 0.60 0.59 0.61 0.62 0.60 0.55 0.44 0.36 0.34 0.38 0.43 0.45 0.46 0.47 0.47 0.48 0.48 0.44 0.40 0.41 0.42 0.43 0.41 0.41 0.43 0.53 0.66 0.75 0.85 1.00 1.19 1.41 1.66
0.60 0.69 0.75 0.80 0.83 0.80 0.79 0.76 0.71 0.70 0.63 0.58 0.60 0.63 0.60 0.62 0.47 0.31 0.28 0.37 0.47 0.49 0.55 0.55 0.46 0.41 0.40 0.33 0.31 0.35 0.35 0.35 0.34 0.36 0.38 0.40 0.47 0.58 0.64 0.73 0.80 0.99 1.24
0.64 0.72 0.80 0.88 0.86 0.82 0.85 0.86 0.83 0.80 0.78 0.71 0.64 0.63 0.63 0.60 0.50 0.32 0.28 0.36 0.49 0.57 0.58 0.58 0.53 0.42 0.32 0.28 0.26 0.27 0.31 0.30 0.33 0.36 0.39 0.41 0.43 0.49 0.53 0.57 0.65 0.67 0.74
0.68 0.77 0.88 0.95 0.80 0.75 0.90 0.92 0.91 0.92 0.92 0.87 0.81 0.72 0.68 0.64 0.49 0.36 0.29 0.33 0.44 0.59 0.66 0.63 0.54 0.43 0.36 0.31 0.27 0.27 0.28 0.27 0.29 0.35 0.40 0.41 0.41 0.43 0.49 0.54 0.59 0.63 0.67
0.77 0.87 0.91 0.93 0.97 0.99 0.97 0.97 0.99 0.97 0.99 0.97 0.95 0.89 0.83 0.79 0.67 0.46 0.36 0.34 0.40 0.51 0.59 0.65 0.58 0.41 0.36 0.36 0.36 0.30 0.25 0.24 0.28 0.31 0.35 0.39 0.37 0.37 0.44 0.54 0.63 0.64 0.64
0.88 0.93 0.97 1.00 1.02 1.07 1.13 1.11 1.08 1.03 1.04 1.05 0.99 0.97 0.95 0.93 0.85 0.68 0.56 0.47 0.46 0.47 0.51 0.55 0.59 0.51 0.41 0.42 0.45 0.37 0.28 0.28 0.30 0.29 0.32 0.37 0.39 0.40 0.44 0.49 0.55 0.61 0.66
0.98 1.01 1.04 1.07 1.10 1.13 1.15 1.10 1.03 1.00 0.90 0.93 0.95 0.94 0.95 0.95 0.84 0.74 0.71 0.67 0.62 0.58 0.56 0.61 0.61 0.63 0.55 0.49 0.50 0.46 0.40 0.39 0.36 0.35 0.34 0.37 0.42 0.44 0.46 0.48 0.49 0.51 0.56
1.09 1.03 1.02 1.01 1.05 1.10 1.10 0.96 0.74 0.67 0.60 0.57 0.62 0.65 0.67 0.63 0.56 0.54 0.57 0.58 0.58 0.60 0.58 0.66 0.72 0.71 0.66 0.63 0.60 0.56 0.54 0.48 0.42 0.41 0.40 0.37 0.40 0.43 0.44 0.47 0.47 0.46 0.45
1.07 1.03 0.96 0.92 0.93 0.93 0.98 1.00 0.91 0.75 0.66 0.59 0.49 0.45 0.48 0.43 0.40 0.41 0.48 0.54 0.57 0.59 0.61 0.68 0.75 0.75 0.74 0.74 0.66 0.60 0.61 0.55 0.50 0.49 0.46 0.45 0.44 0.44 0.42 0.43 0.47 0.48 0.46
1.00 0.91 0.88 0.89 0.87 0.84 0.85 0.88 0.89 0.92 0.90 0.77 0.57 0.47 0.43 0.36 0.32 0.34 0.43 0.53 0.59 0.59 0.65 0.71 0.78 0.76 0.75 0.75 0.72 0.67 0.66 0.59 0.54 0.52 0.48 0.46 0.46 0.47 0.46 0.42 0.41 0.44 0.44
1.01 0.89 0.83 0.80 0.80 0.80 0.78 0.79 0.81 0.88 0.92 0.89 0.73 0.61 0.51 0.37 0.33 0.35 0.40 0.47 0.55 0.61 0.67 0.71 0.73 0.73 0.76 0.73 0.67 0.65 0.66 0.59 0.53 0.49 0.45 0.44 0.45 0.49 0.50 0.46 0.44 0.47 0.45
1.01 0.88 0.81 0.76 0.74 0.78 0.81 0.79 0.78 0.85 0.88 0.86 0.79 0.64 0.47 0.41 0.40 0.40 0.41 0.45 0.51 0.57 0.61 0.63 0.62 0.64 0.65 0.63 0.59 0.59 0.64 0.61 0.54 0.49 0.44 0.43 0.44 0.48 0.49 0.46 0.42 0.43 0.43
0.97 0.87 0.77 0.71 0.68 0.70 0.76 0.77 0.74 0.78 0.81 0.77 0.67 0.54 0.40 0.38 0.43 0.45 0.46 0.47 0.50 0.52 0.55 0.59 0.59 0.56 0.53 0.54 0.53 0.53 0.58 0.57 0.50 0.43 0.41 0.40 0.41 0.46 0.46 0.42 0.40 0.38 0.40
0.96 0.93 0.82 0.74 0.69 0.67 0.68 0.73 0.74 0.74 0.73 0.71 0.60 0.45 0.38 0.38 0.41 0.43 0.42 0.41 0.41 0.46 0.50 0.58 0.59 0.55 0.53 0.53 0.49 0.45 0.48 0.46 0.41 0.39 0.37 0.36 0.39 0.44 0.43 0.40 0.39 0.37 0.37
0.90 0.90 0.84 0.74 0.66 0.65 0.65 0.69 0.73 0.70 0.64 0.63 0.55 0.43 0.38 0.41 0.39 0.40 0.38 0.36 0.38 0.41 0.44 0.49 0.51 0.49 0.46 0.45 0.43 0.39 0.37 0.36 0.35 0.32 0.30 0.31 0.33 0.36 0.36 0.35 0.38 0.37 0.36
0.85 0.85 0.80 0.71 0.64 0.62 0.62 0.66 0.65 0.56 0.48 0.49 0.49 0.41 0.41 0.41 0.36 0.33 0.28 0.28 0.31 0.32 0.31 0.33 0.34 0.33 0.33 0.33 0.34 0.32 0.30 0.29 0.30 0.29 0.26 0.26 0.26 0.29 0.30 0.32 0.35 0.36 0.35
0.82 0.81 0.77 0.70 0.64 0.58 0.56 0.56 0.55 0.50 0.43 0.39 0.39 0.37 0.38 0.35 0.32 0.28 0.23 0.25 0.27 0.27 0.24 0.23 0.25 0.26 0.24 0.23 0.23 0.22 0.22 0.24 0.26 0.26 0.24 0.23 0.24 0.27 0.28 0.29 0.32 0.35 0.34
0.77 0.74 0.70 0.65 0.58 0.51 0.49 0.49 0.47 0.40 0.35 0.31 0.30 0.31 0.30 0.31 0.31 0.28 0.24 0.24 0.24 0.22 0.19 0.19 0.20 0.21 0.20 0.18 0.17 0.16 0.17 0.20 0.23 0.23 0.21 0.20 0.25 0.28 0.27 0.24 0.26 0.29 0.28